Simultaneous Nadir Overpasses (SNOs) Predictions

Prediction of SNOs between GOES-16 and NPP Satellite Orbit:

Table of predicted SNOs for the next 14.0 days since TLE Epoch: 5/25/2024
Index Date Time (GOES-16) GOES-16 Lat,Lon NPP Lat,Lon Distance(km) Time Diff (sec)
1 05/25/2024 18:29:41 0.02, -75.21 -0.13, -75.81 69.35 80
2 05/26/2024 18:08:14 0.02, -75.21 0.87, -71.27 447.93 80
3 05/28/2024 06:32:41 -0.01, -75.22 0.26, -76.55 150.74 80
4 05/29/2024 06:11:14 -0.01, -75.22 -0.74, -72.01 366.86 80
5 05/30/2024 18:35:48 0.01, -75.23 -0.47, -77.29 235.27 80
6 05/31/2024 18:14:21 0.01, -75.24 0.54, -72.75 282.96 80
7 06/02/2024 06:38:46 -0.00, -75.26 0.64, -78.01 314.19 80
8 06/03/2024 06:17:21 -0.01, -75.28 -0.43, -73.49 204.21 80
9 06/04/2024 18:41:54 0.01, -75.29 -0.76, -78.78 397.17 80
10 06/05/2024 18:20:28 0.01, -75.31 0.25, -74.24 121.52 80
11 06/07/2024 06:44:53 -0.01, -75.34 0.92, -79.50 474.84 80
